User: anonymous   Login
Location: Pine Mountain Observatory
(43.7910°N, 120.9377°W)
Time: 06:43:15
(UTC-07:00)
Language:

APEX - Orbit

View from above orbital plane
View from above orbital plane
View from above satellite
View from above satellite

Ground track
Ground track

The orbit data is extracted from the following two-line orbital elements,

1 23191U 94046A   17233.94728031 +.00009896 +00000-0 +33146-3 0  9991
2 23191 069.9212 067.2182 0599987 154.7860 208.3896 14.38622536125971
Epoch (UTC): 21 August 2017 22:44:05
Eccentricity: 0.0599987
inclination: 69.9212°
perigee height: 334 km
apogee height: 1191 km
right ascension of ascending node: 67.2182°
argument of perigee: 154.7860°
revolutions per day: 14.38622536
mean anomaly at epoch: 208.3896°
orbit number at epoch: 12597

The dashed part of the orbit path shows where the satellite is in the earth's shadow,  

DLR